Regional Weather Roundup
Issued by NWS

Home | Current Version | Previous Version | Text Only | Print | Product List | Glossary Off
Versions: 1 2 3 4 5 6 7 8 9 10 11 12 13 14 15 16 17 18 19 20 21 22 23 24 25 26 27 28 29 30 31 32 33 34 35 36 37 38 39 40 41 42 43 44 45 46 47 48 49 50

000
ASUS43 KMPX 150310
RWRMN
WEATHER ROUNDUP FOR MINNESOTA
NATIONAL WEATHER SERVICE TWIN CITIES/CHANHASSEN MN
1000 PM CDT SUN SEP 14 2014


NOTE: "FAIR" INDICATES FEW OR NO CLOUDS BELOW 12,000 FEET WITH NO
SIGNIFICANT WEATHER AND/OR OBSTRUCTIONS TO VISIBILITY. N/A MEANS
CURRENT SKY AND/OR WEATHER CONDITIONS ARE NOT AVAILABLE.

MNZ060>063-068>070-150400-
   Twin Cities Metro

CITY           SKY/WX    TMP DP  RH WIND       PRES   REMARKS
TWIN CITIES    CLOUDY    55  43  63 W6        30.14R
ST PAUL        MOCLDY    56  43  61 NW3       30.13S
CRYSTAL        MOCLDY    54  45  71 W3        30.13R
BLAINE         MOCLDY    54  46  76 NW5       30.13R
LAKEVILLE      RAIN      52  46  82 CALM      30.14R
EDEN PRAIRIE   CLOUDY    55  44  66 W3        30.13R
SOUTH ST PAUL  CLOUDY    56  43  60 W3        30.13R
LAKE ELMO      FAIR      48  45  87 CALM      30.13S
$$
MNZ001>005-007-008-013>017-022>024-027-028-150400-
   Northwest Minnesota

CITY           SKY/WX    TMP DP  RH WIND       PRES   REMARKS
BEMIDJI        CLOUDY    47  45  92 W5        30.12S
HALLOCK        CLOUDY    48  37  66 W3        30.14S
ROSEAU         CLOUDY    46  39  76 NW7       30.12R
WARROAD        CLOUDY    48  45  87 NW9       30.12R
THIEF RVR FALL CLOUDY    48  43  81 NW6       30.14R
CROOKSTON      CLOUDY    48  45  87 W3        30.15R
FOSSTON        CLOUDY    45  43  93 CALM      30.14S
DETROIT LAKES  MOCLDY    46  45  93 CALM      30.15S
MOORHEAD       CLOUDY    52  46  82 CALM      30.16R
PARK RAPIDS    PTCLDY    41  39  93 W3        30.13R
MAHNOMEN       CLOUDY    47  44  88 CALM      30.14S
$$
MNZ006-009>011-018-025>026-150400-
   North Central Minnesota

CITY           SKY/WX    TMP DP  RH WIND       PRES   REMARKS
BAUDETTE       CLOUDY    48  44  86 W3        30.10R
FLAG ISLAND    MOCLDY    48  45  87 W10       30.08R
INTL FALLS     CLOUDY    48  45  89 W7        30.07R
WASKISH        CLOUDY    50  45  81 CALM      30.11R
BIG FORK       MOCLDY    48  43  81 W2        30.10S
LONGVILLE      CLEAR     41  39  93 CALM      30.12R
GRAND RAPIDS   PTCLDY    48  41  76 W7        30.10S
CRANE LAKE     HVY RAIN  46  45  93 CALM      30.09R
ORR            CLOUDY    46  43  87 W6        30.06R
COOK           MOCLDY    46  43  87 CALM      30.08S
WALKER         CLOUDY    43  41  94 W3        30.12S
$$
MNZ012-019>021-037-150400-
   Northeast Minnesota

CITY           SKY/WX    TMP DP  RH WIND       PRES   REMARKS
DULUTH         PTCLDY    44  39  82 W8        30.09S
ELY            PTCLDY    43  41  93 SW6       30.07R
HIBBING        CLOUDY    49  45  86 CALM      30.09S
EVELETH        LGT RAIN N/A N/A N/A W6        30.10S
DULUTH HARBOR  CLEAR     54  46  76 W10       30.10S
TWO HARBORS    CLEAR     45  39  81 CALM      30.07S
SILVER BAY     CLEAR     45  45 100 CALM      30.06R
GRAND MARAIS     N/A     47  44  90 W5        30.04S
G MARAIS ARPRT CLEAR     43  37  81 W3        30.04S
$$
MNZ029>031-032-039>041-046>048-054>057-064-150400-
   West Central Minnesota

CITY           SKY/WX    TMP DP  RH WIND       PRES   REMARKS
FERGUS FALLS   MOCLDY    48  43  81 CALM      30.15S
WHEATON        PTCLDY    46  41  81 W3        30.18R
MORRIS         MOCLDY    48  43  81 NW5       30.14S
ALEXANDRIA     PTCLDY    49  44  83 SW5       30.15R
ELBOW LAKE     FAIR      47  43  87 NW3       30.14R
WADENA         CLOUDY    43  43 100 CALM      30.13S
GLENWOOD       MOCLDY    48  43  81 W5        30.15R
APPLETON       MOCLDY    48  46  93 CALM      30.15R
BENSON         MOCLDY    48  45  87 CALM      30.15S
ORTONVILLE     MOCLDY    52  41  66 CALM      30.15S
MADISON        CLOUDY    54  48  82 CALM      30.15S
WILLMAR        FAIR      48  45  87 CALM      30.16S
$$
MNZ033>034-036-042>043-049>051-058-059-150400-
   Central Minnesota

CITY           SKY/WX    TMP DP  RH WIND       PRES   REMARKS
ST CLOUD       MOCLDY    51  46  83 CALM      30.14R
SAUK CENTRE    FAIR      47  45  93 CALM      30.14S
PAYNESVILLE    CLOUDY    45  43  95 CALM      30.16R
AITKIN         CLEAR     48  43  81 CALM      30.10S
PINE RIVER     CLEAR     43  41  93 CALM      30.16R FOG
BRAINERD       CLEAR     43  42  97 CALM      30.13S
STAPLES        PTCLDY    43  43 100 CALM      30.13S
LONG PRAIRIE   FAIR      43  41  93 CALM      30.15R
LITTLE FALLS   PTCLDY    43  41  93 CALM      30.14R
LITCHFIELD       N/A     52  48  87 CALM      30.15S
BUFFALO        MOCLDY    52  44  73 W3        30.15S
MAPLE LAKE     MOCLDY    48  46  92 CALM      30.15S
$$
MNZ037-044-045-052-053-150400-
   East Central Minnesota

CITY           SKY/WX    TMP DP  RH WIND       PRES   REMARKS
PRINCETON      MOCLDY    50  46  87 CALM      30.13S
MORA           PTCLDY    45  43  93 CALM      30.14S
CAMBRIDGE      MOCLDY    52  43  71 CALM      30.12R
RUSH CITY      MOCLDY    46  44  93 CALM      30.12S
MOOSE LAKE     CLEAR     45  43  93 W5        30.09S
HINCKLEY       FAIR      43  43 100 CALM      30.12R
CLOQUET        CLEAR     46  41  81 W5        30.10S
MCGREGOR       CLEAR     41  39  93 CALM      30.12R
$$
MNZ071>073-080-081-089-090-097-098-150400-
   Southwest Minnesota

CITY           SKY/WX    TMP DP  RH WIND       PRES   REMARKS
MONTEVIDEO     MOCLDY    52  45  76 CALM      30.16S
GRANITE FALLS  CLOUDY    50  47  90 SW3       30.17S
CANBY          CLOUDY    50  45  81 W3        30.17S
MARSHALL       CLOUDY    48  45  87 W5        30.15S
REDWOOD FALLS  CLOUDY    51  47  86 W6        30.15S
OLIVIA         CLOUDY    52  46  82 W6        30.15R
PIPESTONE      LGT RAIN  50  43  76 NE5       30.14F
WINDOM         CLOUDY    52  46  82 NW5       30.15F
WORTHINGTON    CLOUDY    52  45  76 N5        30.16S
JACKSON        CLOUDY    52  45  76 N5        30.15F
TRACY          LGT RAIN  50  47  88 CALM      30.16S
SLAYTON        CLOUDY    50  44  82 CALM      30.16S
$$
MNZ065>067-074>077-082>085-091>093-150400-
   South Central Minnesota

CITY           SKY/WX    TMP DP  RH WIND       PRES   REMARKS
MANKATO        CLOUDY    54  41  62 N7        30.15R
NEW ULM        CLOUDY    52  46  82 NW3       30.16R
ST JAMES       CLOUDY    54  46  76 CALM      30.16S
FAIRMONT       CLOUDY    52  45  76 N3        30.14S
GLENCOE        CLOUDY    54  45  71 CALM      30.15R
FARIBAULT      CLOUDY    57  43  58 NW3       30.15R
OWATONNA       CLOUDY    54  48  82 CALM      30.14S
WASECA         CLOUDY    50  45  81 CALM      30.16R
ALBERT LEA     CLOUDY    54  48  82 CALM      30.14S
$$
MNZ078>079-086>088-094>096-150400-
   Southeast Minnesota

CITY           SKY/WX    TMP DP  RH WIND       PRES   REMARKS
ROCHESTER      CLOUDY    55  45  68 CALM      30.14S
RED WING       CLOUDY    55  46  71 CALM      30.12R
STANTON        LGT RAIN  53  47  78 CALM      30.13S
DODGE CENTER   CLOUDY    55  46  71 NW3       30.14R
WINONA         CLOUDY    55  50  82 N3        30.13R
AUSTIN         CLOUDY    54  46  76 CALM      30.13S
PRESTON        CLOUDY    55  51  86 N3        30.14S
$$
ABBREVIATIONS USED IN REMARKS
   TC - TEMPERATURES IN CELSIUS
  WCI - WIND CHILL INDEX
   HX - HEAT INDEX
  VSB - VISIBILITY
$$



USA.gov is the U.S. government's official web portal to all federal, state and local government web resources and services.